Location: Plainartige
(45.6866°N, 1.7993°E)
Time: 05:18:38
(UTC+00:00)

Vanguard 1 - Pass Details

Date: 31 May 2022
Orbit: 649 x 3833 km, 34.2° (Epoch: 06 July)

Event Time Altitude Azimuth Distance (km) Brightness Sun altitude
Exits shadow 02:07:12 - 255° (WSW) 5,162 13.3 -15.6°
Reaches altitude 10° 02:09:10 10° 252° (WSW) 4,737 13.1 -15.4°
Maximum altitude 02:23:27 58° 178° (S) 3,523 12.6 -14.0°
Drops below altitude 10° 02:45:27 10° 108° (ESE) 6,936 14.7 -11.6°
Sets 02:51:02 0° 105° (ESE) 7,944 15.1 -11.0°
